Location: Dallas
(32.7833°N, 96.8000°W)
Time: 20:45:01
(UTC-05:00)

ISS - Visible Passes

Search period start: 16 May 2021 00:00
Search period end: 26 May 2021 00:00
Orbit: 417 x 422 km, 51.6° (Epoch: 16 May)

Date Brightness Start Highest point End Pass type
(mag) Time Alt. Az. Time Alt. Az. Time Alt. Az.
16 May -0.5 03:43:56 10° N 03:45:53 14° NNE 03:47:49 10° ENE visible
16 May -3.8 05:19:37 10° NW 05:22:56 57° SW 05:26:14 10° SSE visible
16 May -0.7 22:00:46 10° W 22:03:09 18° NW 22:05:35 10° NNE visible
17 May -3.6 04:33:43 25° NW 04:35:31 71° NE 04:38:51 10° SE visible
17 May -1.5 21:12:36 10° W 21:15:35 29° NW 21:18:33 10° NNE visible
19 May -0.4 21:16:25 10° NW 21:17:47 12° NNW 21:19:08 10° N visible
